Weather History for Camp Pendleton, CA

Change the Weather History Date:

Friday, December 14, 2012

  Actual Average Record
Temperature  
Mean Temperature 49 °F -  
Max Temperature 59 °F 66 °F 83 °F (1996)
Min Temperature 39 °F 37 °F 30 °F (2013)
Degree Days  
Heating Degree Days 16    
Moisture  
Dew Point 40 °F    
Average Humidity 68    
Maximum Humidity 86    
Minimum Humidity 44    
Precipitation  
Precipitation 0.03 in - - ()
Sea Level Pressure  
Sea Level Pressure 29.89 in    
Wind  
Wind Speed 3 mph (South)    
Max Wind Speed 10 mph    
Max Gust Speed 18 mph    
Visibility 10 miles    
Events Rain    
Averages and records for this station are not official NWS values.
T = Trace of Precipitation, MM = Missing Value Source: NWS Daily Summary

Daily Weather History Graph

Daily Weather History Graph

Search for Another Location

Airport:

Trip Planner

Search our weather history database for the weather conditions in past years. The results will help you decide how hot, cold, wet, or windy it might be!

Date:

Astronomy

Dec. 14, 2012 Rise Set
Actual Time 6:45 AM PST 4:43 PM PST
Civil Twilight 6:17 AM PST 5:10 PM PST
Nautical Twilight 5:46 AM PST 5:41 PM PST
Astronomical Twilight 5:16 AM PST 6:12 PM PST
Moon 7:56 AM PST (12/14) 6:38 PM PST (12/14)
Length of Visible Light 10h 52m
Length of Day
9h 57m
Waxing Crescent, 3% of the Moon is Illuminated
Dec 14
Waxing Crescent
Dec 19
First Quarter
Dec 28
Full
Jan 4
Last Quarter
Jan 11
New

Hourly Weather History & Observations

Time (PST) Temp. Windchill Dew Point Humidity Pressure Visibility Wind Dir Wind Speed Gust Speed Precip Events Conditions
12:54 AM 46.9 °F - 42.1 °F 83% 29.78 in 10.0 mi East 3.5 mph - N/A   Partly Cloudy
1:54 AM 46.9 °F - 42.1 °F 83% 29.79 in 10.0 mi Calm Calm - N/A   Scattered Clouds
2:54 AM 46.0 °F 44.8 °F 41.0 °F 83% 29.80 in 10.0 mi ENE 3.5 mph - 0.00 in   Overcast
3:54 AM 44.1 °F 42.5 °F 39.0 °F 82% 29.80 in 10.0 mi ENE 3.5 mph - 0.01 in   Clear
4:54 AM 43.0 °F - 37.9 °F 82% 29.81 in 10.0 mi Calm Calm - N/A   Partly Cloudy
5:54 AM 39.9 °F - 35.1 °F 83% 29.84 in 10.0 mi Calm Calm - N/A   Scattered Clouds
6:54 AM 41.0 °F - 35.1 °F 79% 29.87 in 10.0 mi Calm Calm - N/A   Scattered Clouds
7:54 AM 45.0 °F - 41.0 °F 86% 29.90 in 10.0 mi Calm Calm - 0.00 in Rain Light Rain
8:54 AM 50.0 °F - 44.1 °F 80% 29.92 in 10.0 mi ENE 3.5 mph - 0.02 in   Mostly Cloudy
9:54 AM 54.0 °F - 46.0 °F 75% 29.93 in 10.0 mi ENE 3.5 mph - N/A   Mostly Cloudy
10:54 AM 57.0 °F - 41.0 °F 55% 29.93 in 10.0 mi SW 6.9 mph 18.4 mph N/A   Mostly Cloudy
11:54 AM 59.0 °F - 39.0 °F 48% 29.93 in 10.0 mi WSW 9.2 mph 18.4 mph N/A   Mostly Cloudy
12:54 PM 59.0 °F - 37.0 °F 44% 29.92 in 10.0 mi SW 10.4 mph 17.3 mph N/A   Mostly Cloudy
1:54 PM 57.9 °F - 37.0 °F 46% 29.93 in 10.0 mi SW 6.9 mph - N/A   Mostly Cloudy
2:54 PM 57.9 °F - 37.9 °F 47% 29.94 in 10.0 mi WSW 8.1 mph - N/A   Mostly Cloudy
3:54 PM 57.0 °F - 41.0 °F 55% 29.94 in 10.0 mi South 4.6 mph - N/A   Mostly Cloudy
4:54 PM 55.0 °F - 43.0 °F 64% 29.95 in 10.0 mi Calm Calm - N/A   Overcast
5:54 PM 55.9 °F - 35.1 °F 45% 29.97 in 10.0 mi WSW 3.5 mph - 0.00 in Rain Light Rain
6:54 PM 53.1 °F - 43.0 °F 69% 29.98 in 10.0 mi Calm Calm - 0.00 in Rain Light Rain